Regional Weather Roundup
Issued by NWS Goodland, KS

Home | Current Version | Previous Version | Graphics & Text | Print | Product List | Glossary On
Versions: 1 2 3 4 5 6 7 8 9 10 11 12 13 14 15 16 17 18 19 20 21 22 23 24 25 26 27 28 29 30 31 32 33 34 35 36 37 38 39 40 41 42 43 44 45 46 47 48 49 50
000
ASUS43 KGLD 192359
RWRGLD

GOODLAND FORECAST AREA HOURLY WEATHER ROUNDUP
NATIONAL WEATHER SERVICE GOODLAND KS
600 PM MDT FRI SEP 19 2014

...OFFICIAL OBSERVATIONS...

CITY           SKY/WX    TMP DP  RH WIND       PRES   REMARKS
GOODLAND KS    CLEAR     84  58  40 S18       29.88S
HILL CITY KS   PTCLDY    88  57  34 S14G25    29.84S
IMPERIAL NEB   CLEAR     88  52  29 S7        29.83S
MCCOOK NEB     CLEAR     88  60  38 S12       29.82S
AKRON CO       CLEAR     85  44  23 E8        29.91S
BURLINGTON CO  CLEAR     85  54  34 S17       29.90S
LIMON CO       SUNNY     84  36  18 NE8       29.97S
$$

...UNOFFICIAL OBSERVATIONS...

CITY           SKY/WX    TMP DP  RH WIND       PRES   REMARKS
COLBY KS       CLEAR     84  63  48 S18G24    29.88R
GOVE KS          N/A     86  32  14 MISG        N/A
NORTON KS      CLEAR     88  52  29 S14G20    29.83R
SHARON SPRINGS   N/A     83  61  47 S20G26      N/A
WAKEENEY KS      N/A     86  51  29 MISG        N/A
TRENTON NEB      N/A     89  32  13 S12         N/A
KIT CARSON CO    N/A     87  53  30 N5G14       N/A
$$


USA.gov is the U.S. government's official web portal to all federal, state and local government web resources and services.